Akron, OH

2:44 PM EDT on September 26, 2017 (GMT -0400)
Akron Fulton International

Weather History for KAKR - March, 2013

Change the Weather History Date:

Tuesday, March 19, 2013

  Actual Average (KCAK) Record (KCAK)
Temperature  
Mean Temperature 34 °F -  
Max Temperature 39 °F 47 °F 78 °F (2012)
Min Temperature 26 °F 28 °F 2 °F (1934)
Degree Days  
Heating Degree Days 32    
Moisture  
Dew Point 21 °F    
Average Humidity 68    
Maximum Humidity 86    
Minimum Humidity 52    
Precipitation  
Precipitation 0.00 in - - ()
Sea Level Pressure  
Sea Level Pressure 29.82 in    
Wind  
Wind Speed 17 mph (WSW)    
Max Wind Speed 26 mph    
Max Gust Speed 40 mph    
Visibility 8 miles    
Events Rain , Snow    
Averages and records for this station are not official NWS values.
T = Trace of Precipitation, MM = Missing Value Source: NWS Daily Summary

Daily Weather History Graph

Daily Weather History Graph

Search for Another Location

Airport or City:

Trip Planner

Search our weather history database for the weather conditions in past years. The results will help you decide how hot, cold, wet, or windy it might be!

Date:

Astronomy

Mar. 19, 2013 Rise Set
Actual Time 7:30 AM EDT 7:37 PM EDT
Civil Twilight 7:03 AM EDT 8:04 PM EDT
Nautical Twilight 6:31 AM EDT 8:36 PM EDT
Astronomical Twilight 5:58 AM EDT 9:09 PM EDT
Moon 12:16 PM EDT (3/19) 2:25 AM EDT (3/19)
Length of Visible Light 13h 01m
Length of Day
12h 06m
Waxing Crescent, 49% of the Moon is Illuminated
Mar 19
Waxing Crescent
Mar 19
First Quarter
Mar 27
Full
Apr 3
Last Quarter
Apr 10
New

Hourly Weather History & Observations

Time (EDT) Temp. Windchill Dew Point Humidity Pressure Visibility Wind Dir Wind Speed Gust Speed Precip Events Conditions
12:24 AM 41.0 °F 32.2 °F 35.6 °F 81% 29.68 in 10.0 mi West 18.4 mph - N/A   Overcast
12:36 AM 41.0 °F 32.8 °F 35.6 °F 81% 29.68 in 10.0 mi West 16.1 mph - N/A   Overcast
12:54 AM 39.0 °F 28.5 °F 35.1 °F 86% 29.71 in 6.0 mi West 23.0 mph 32.2 mph 0.00 in Rain Light Rain
1:54 AM 37.0 °F 27.0 °F 28.9 °F 73% 29.75 in 10.0 mi West 18.4 mph 25.3 mph 0.00 in   Overcast
2:54 AM 36.0 °F 30.3 °F 30.0 °F 79% 29.74 in 10.0 mi WSW 6.9 mph - N/A   Overcast
3:54 AM 36.0 °F 29.6 °F 30.9 °F 82% 29.75 in 10.0 mi West 8.1 mph - N/A   Overcast
4:15 AM 35.6 °F 27.1 °F 28.4 °F 75% 29.72 in 10.0 mi SW 12.7 mph 20.7 mph N/A   Overcast
4:54 AM 36.0 °F 28.5 °F 27.0 °F 70% 29.74 in 10.0 mi SW 10.4 mph 18.4 mph N/A   Mostly Cloudy
5:54 AM 35.1 °F 26.4 °F 24.1 °F 64% 29.75 in 10.0 mi WSW 12.7 mph 27.6 mph N/A   Scattered Clouds
6:54 AM 33.1 °F 23.9 °F 23.0 °F 66% 29.77 in 10.0 mi WSW 12.7 mph 24.2 mph N/A   Mostly Cloudy
7:54 AM 30.9 °F 19.8 °F 21.9 °F 69% 29.78 in 10.0 mi SW 16.1 mph 26.5 mph N/A   Overcast
8:35 AM 30.2 °F 16.2 °F 19.4 °F 64% 29.76 in 10.0 mi WSW 25.3 mph 31.1 mph N/A   Mostly Cloudy
8:54 AM 30.0 °F 18.3 °F 19.0 °F 64% 29.80 in 10.0 mi WSW 17.3 mph 31.1 mph N/A   Mostly Cloudy
9:54 AM 27.0 °F 12.5 °F 18.0 °F 69% 29.81 in 10.0 mi West 23.0 mph 31.1 mph N/A   Overcast
10:54 AM 26.1 °F 12.3 °F 17.1 °F 69% 29.83 in 10.0 mi West 19.6 mph - N/A   Overcast
11:18 AM 26.6 °F 13.1 °F 15.8 °F 64% 29.80 in 10.0 mi West 19.6 mph 27.6 mph N/A   Overcast
11:46 AM 26.6 °F 14.3 °F 19.4 °F 74% 29.81 in 2.5 mi West 16.1 mph 25.3 mph 0.00 in Snow Light Snow
11:54 AM 26.1 °F 13.6 °F 19.9 °F 78% 29.84 in 1.5 mi West 16.1 mph 24.2 mph 0.00 in Snow Light Snow
12:08 PM 26.6 °F 15.7 °F 19.4 °F 74% 29.81 in 2.0 mi WSW 12.7 mph 24.2 mph 0.00 in Snow Light Snow
12:16 PM 28.4 °F 14.4 °F 19.4 °F 69% 29.81 in 9.0 mi West 23.0 mph 29.9 mph 0.00 in   Overcast
12:54 PM 28.0 °F 14.6 °F 18.0 °F 66% 29.84 in 3.0 mi WSW 20.7 mph 29.9 mph 0.00 in Snow Light Snow
12:59 PM 28.4 °F 16.6 °F 19.4 °F 69% 29.82 in 2.5 mi WSW 16.1 mph 29.9 mph 0.00 in Snow Light Snow
1:06 PM 30.2 °F 17.4 °F 19.4 °F 64% 29.81 in 4.0 mi WSW 20.7 mph 25.3 mph 0.00 in Snow Light Snow
1:54 PM 30.0 °F 18.7 °F 18.0 °F 61% 29.85 in 8.0 mi West 16.1 mph 27.6 mph 0.00 in Snow Light Snow
2:54 PM 30.0 °F 17.2 °F 19.9 °F 66% 29.86 in 3.0 mi West 20.7 mph 34.5 mph 0.00 in Snow Light Snow
3:54 PM 32.0 °F 18.6 °F 16.0 °F 52% 29.86 in 10.0 mi West 25.3 mph 38.0 mph 0.00 in   Overcast
4:54 PM 30.0 °F 17.2 °F 19.0 °F 64% 29.89 in 4.0 mi West 20.7 mph 33.4 mph 0.00 in Snow Light Snow
5:03 PM 30.2 °F 15.9 °F 17.6 °F 60% 29.87 in 9.0 mi West 26.5 mph 38.0 mph 0.00 in   Overcast
5:54 PM 30.0 °F 16.6 °F 16.0 °F 56% 29.93 in 10.0 mi West 23.0 mph 40.3 mph 0.00 in   Overcast
6:54 PM 30.0 °F 16.9 °F 16.0 °F 56% 29.93 in 10.0 mi WSW 21.9 mph 28.8 mph 0.00 in   Overcast
7:54 PM 28.9 °F 16.5 °F 16.0 °F 58% 29.94 in 10.0 mi West 18.4 mph 28.8 mph N/A   Scattered Clouds
8:54 PM 28.9 °F 18.2 °F 16.0 °F 58% 29.96 in 10.0 mi West 13.8 mph 23.0 mph N/A   Clear
9:54 PM 28.0 °F 17.5 °F 17.1 °F 63% 29.97 in 10.0 mi West 12.7 mph - N/A   Partly Cloudy
10:54 PM 28.0 °F 18.1 °F 18.0 °F 66% 29.97 in 10.0 mi West 11.5 mph - N/A   Clear
11:54 PM 28.9 °F 18.6 °F 17.1 °F 61% 29.97 in 10.0 mi West 12.7 mph - N/A   Clear